[[{"header":{"parameterUnit":"m.s-1","parameterCategory":1,"la1":30.2991,"la2":30.254,"lo1":-89.0895,"lo2":-89.0444,"dy":0.0017,"dx":0.0017,"nx":28,"ny":28,"refTime":"2025-09-08T21:00:00:Z","depth":0,"parameterNumber":2,"parameterNumberName":"U-component_of_WINDS"},"data":[0,0,0,0,0,0,0,0,0,0,0,0,0,0,0,0,0,0,0,0,0,0,0,0,0,0,0,0,0,0,0,0,0,0,0,0,0,0,0,0,0,0,0,0,0,0,0,0,0,0,0,0,0,0,0,0,0,0,-5.5379,-5.5378,0,-5.5358,-5.5358,-5.5357,-5.521,-5.5207,-5.5203,-5.52,-5.5179,-5.5181,-5.5184,0,0,0,0,0,0,0,0,0,0,0,0,0,-5.5292,-5.5295,-5.5379,-5.5378,-5.5378,-5.5358,-5.5357,-5.5357,-5.5211,-5.5207,-5.5202,-5.5198,-5.5178,-5.5181,-5.5185,0,0,0,0,0,0,0,0,0,0,0,0,0,-5.5307,-5.5295,-5.5379,-5.5303,-5.5296,-5.5358,-5.5357,-5.5357,-5.5212,-5.5207,-5.5201,-5.5196,-5.5177,-5.5181,-5.5185,-5.5318,0,0,-5.5198,-5.52,0,0,0,0,0,0,0,0,-5.5306,-5.531,-5.5314,-5.5308,-5.53,-5.5281,-5.5319,-5.5344,-5.5213,-5.5244,-5.52,-5.5194,-5.5217,-5.5218,-5.5226,-5.5317,-5.5317,-5.5198,-5.5201,-5.5202,-5.5204,0,0,0,0,0,0,0,-5.5305,-5.531,-5.537,-5.5314,-5.5306,-5.527,-5.5266,-5.5323,-5.5261,-5.5241,-5.523,-5.523,-5.5212,-5.5222,-5.5224,-5.5316,-5.5198,-5.5202,-5.5204,-5.5206,-5.5517,-5.5523,0,0,0,0,0,0,-5.5315,-5.531,-5.5371,-5.537,-5.529,-5.5276,-5.5271,-5.5293,-5.526,-5.525,-5.5234,-5.5223,-5.5217,-5.5219,-5.5223,-5.5377,-5.5202,-5.5206,-5.5209,-5.5511,-5.5518,-5.5525,0,0,0,0,0,0,-5.5313,-5.5322,-5.5372,-5.5337,-5.5341,-5.5283,-5.5308,-5.5295,-5.5304,-5.5255,-5.5243,-5.5255,-5.5213,-5.5217,-5.5296,-5.5374,-5.5208,-5.5212,-5.5505,-5.5514,-5.5521,-5.5688,0,0,0,0,0,0,-5.5312,-5.5322,-5.5372,-5.5339,-5.5343,-5.5446,-5.5313,-5.5299,-5.5312,-5.5297,-5.5272,-5.5262,-5.5209,-5.529,-5.53,-5.5377,-5.5215,-5.5497,-5.5509,-5.5519,-5.5675,-5.5701,-5.5723,0,0,0,0,0,-5.5309,-5.5419,-5.5375,-5.5383,-5.5404,-5.545,-5.5453,-5.5389,-5.5319,-5.5369,-5.5337,-5.5263,-5.5364,-5.53,-5.5309,-5.5389,-5.5492,-5.5505,-5.5518,-5.5664,-5.5696,-5.5723,0,0,0,0,0,0,-5.5463,-5.5414,-5.5364,-5.5467,-5.5464,-5.5426,-5.5486,-5.5425,-5.5442,-5.5427,-5.5347,-5.5343,-5.5434,-5.5419,-5.5348,-5.5517,-5.5415,-5.5431,-5.5523,-5.5553,-5.5577,-5.5579,-5.5219,0,0,0,0,0,-5.5509,-5.555,-5.5505,-5.56,-5.5601,-5.5545,-5.5562,-5.5514,-5.5508,-5.5506,-5.5479,-5.5476,-5.5507,-5.5529,-5.5555,-5.5672,-5.5665,-5.5731,-5.5756,-5.5776,-5.579,-5.5852,-5.5881,-5.5567,-5.5567,-5.5567,0,0,-5.5604,-5.5582,-5.5613,-5.5631,-5.5623,-5.5668,-5.5545,-5.5597,-5.563,-5.5513,-5.5586,-5.5568,-5.5559,-5.5658,-5.57,-5.5648,-5.5875,-5.5792,-5.5809,-5.5812,-5.5868,-5.5898,-5.5924,-5.5576,-5.5574,-5.5573,0,0,-5.5801,-5.5789,-5.5867,-5.5861,-5.5851,-5.5812,-5.5832,-5.5803,-5.5785,-5.5858,-5.5771,-5.5809,-5.5864,-5.5861,-5.5867,-5.6064,-5.5997,-5.6075,-5.6201,-5.6262,-5.6287,-5.6308,-5.6379,-5.6406,-5.6089,-5.609,-5.609,0,-5.592,-5.5985,-5.5915,-5.5974,-5.5984,-5.5881,-5.596,-5.5958,-5.5957,-5.5966,-5.5908,-5.5975,-5.5962,-5.6059,-5.6108,-5.6116,-5.6135,-5.6077,-5.6289,-5.631,-5.6329,-5.6396,-5.6423,-5.6099,-5.6098,-5.6097,-5.6096,0,-5.6133,-5.6179,-5.6243,-5.6245,-5.6263,-5.6331,-5.6272,-5.6299,-5.6249,-5.6217,-5.6292,-5.6273,-5.6293,-5.6313,-5.6264,-5.6404,-5.6372,-5.6303,-5.6199,-5.637,-5.6431,-5.6456,-5.6113,-5.611,-5.6107,-5.6104,0,0,-5.6425,-5.6388,-5.6413,-5.6413,-5.6394,-5.6428,-5.6492,-5.6512,-5.6537,-5.6539,-5.6592,-5.6641,-5.6577,-5.6584,-5.6535,-5.6588,-5.6747,-5.6512,-5.6511,-5.6557,-5.69,-5.6952,-5.6983,-5.6702,-5.6706,-5.671,-5.6901,0,-5.6615,-5.6722,-5.6662,-5.6778,-5.682,-5.6723,-5.6779,-5.6774,-5.6746,-5.6778,-5.6746,-5.6783,-5.6695,-5.6699,-5.6748,-5.6717,-5.6814,-5.6702,-5.675,-5.6753,-5.6756,-5.7015,-5.707,-5.7251,-5.6924,-5.6928,-5.6931,0,-5.6849,-5.6863,-5.6984,-5.6957,-5.6973,-5.7024,-5.7038,-5.7069,-5.7062,-5.7038,-5.7047,-5.6984,-5.7046,-5.6944,-5.7028,-5.6953,-5.6969,-5.6957,-5.6963,-5.6965,-5.6853,-5.7025,-5.7307,-5.7335,-5.6968,-5.6965,-5.6962,0,-5.7052,-5.71,-5.7178,-5.7181,-5.7152,-5.7191,-5.7181,-5.7168,-5.7184,-5.7196,-5.7206,-5.7225,-5.7236,-5.7253,-5.7198,-5.7129,-5.729,-5.7183,-5.7272,-5.7274,-5.731,-5.7309,-5.76,-5.7321,-5.732,-5.732,-5.7319,0,-5.7269,-5.7347,-5.7269,-5.7317,-5.7402,-5.7332,-5.7417,-5.7396,-5.7386,-5.7429,-5.7346,-5.7389,-5.7313,-5.7348,-5.7305,-5.7382,-5.7387,-5.737,-5.7358,-5.7378,-5.738,-5.7387,-5.7374,-5.7327,-5.7325,-5.7324,-5.7323,0,-5.7509,-5.746,-5.7539,-5.7506,-5.7499,-5.7563,-5.7534,-5.7578,-5.7545,-5.76,-5.7609,-5.7558,-5.7594,-5.7541,-5.7572,-5.7543,-5.7649,-5.7618,-5.7652,-5.7643,-5.7735,-5.7728,-5.8041,-5.8079,-5.7776,-5.7779,-5.7781,0,-5.7652,-5.7709,-5.7683,-5.7706,-5.77,-5.7738,-5.7754,-5.7688,-5.7708,-5.7705,-5.7749,-5.7779,-5.7799,-5.7863,-5.7828,-5.7851,-5.782,-5.7928,-5.7823,-5.7842,-5.7822,-5.782,-5.7826,-5.795,-5.7954,-5.7957,-5.7959,0,-5.791,-5.7883,-5.7909,-5.7928,-5.795,-5.7962,-5.7967,-5.7991,-5.7921,-5.7948,-5.7984,-5.8001,-5.8032,-5.8063,-5.8078,-5.8067,-5.8003,-5.7993,-5.8015,-5.8036,-5.8054,-5.8046,-5.7712,-5.7986,-5.7983,-5.7981,-5.798,-5.7979,-5.8105,-5.8153,-5.8141,-5.8174,-5.8171,-5.8179,-5.8218,-5.819,-5.822,-5.824,-5.8199,-5.8247,-5.8238,-5.8251,-5.8248,-5.8285,-5.8237,-5.8269,-5.8277,-5.8286,-5.8301,-5.8048,-5.8287,-5.8286,-5.8285,-5.8285,-5.8284,0,-5.836,-5.8348,-5.8379,-5.8389,-5.8415,-5.8352,-5.8355,-5.8381,-5.8423,-5.8421,-5.8443,-5.8486,-5.8516,-5.8484,-5.8508,-5.8543,-5.8514,-5.8552,-5.8549,-5.8547,-5.8341,-5.832,-5.8575,-5.8575,-5.8575,-5.8575,-5.8575,-5.8575,-5.8495,-5.8572,-5.8544,-5.8618,-5.8605,-5.8651,-5.8659,-5.8665,-5.8663,-5.8714,-5.8739,-5.8718,-5.8704,-5.8726,-5.8751,-5.8741,-5.8754,-5.8803,-5.8782,-5.859,-5.8562,-5.8535,-5.8514,-5.8806,-5.8806,-5.8985,-5.8987,-5.8988]},{"header":{"parameterUnit":"m.s-1","parameterCategory":1,"la1":30.2991,"la2":30.254,"lo1":-89.0895,"lo2":-89.0444,"dy":0.0017,"dx":0.0017,"nx":28,"ny":28,"refTime":"2025-09-08T21:00:00:Z","depth":0,"parameterNumber":3,"parameterNumberName":"V-component_of_WINDS"},"data":[0,0,0,0,0,0,0,0,0,0,0,0,0,0,0,0,0,0,0,0,0,0,0,0,0,0,0,0,0,0,0,0,0,0,0,0,0,0,0,0,0,0,0,0,0,0,0,0,0,0,0,0,0,0,0,0,0,0,-0.5689,-0.5689,0,-0.5655,-0.5654,-0.5654,-0.5582,-0.558,-0.5579,-0.5577,-0.5547,-0.5547,-0.5548,0,0,0,0,0,0,0,0,0,0,0,0,0,-0.5696,-0.5696,-0.5689,-0.5689,-0.5688,-0.5655,-0.5654,-0.5654,-0.5582,-0.558,-0.5578,-0.5577,-0.5547,-0.5547,-0.5548,0,0,0,0,0,0,0,0,0,0,0,0,0,-0.568,-0.5696,-0.5689,-0.5648,-0.5644,-0.5655,-0.5654,-0.5654,-0.5582,-0.558,-0.5578,-0.5576,-0.5546,-0.5547,-0.5548,-0.5597,0,0,-0.5551,-0.5551,0,0,0,0,0,0,0,0,-0.5681,-0.568,-0.5655,-0.5651,-0.5647,-0.562,-0.5645,-0.5635,-0.5583,-0.5606,-0.5577,-0.5575,-0.5573,-0.5572,-0.557,-0.5596,-0.5594,-0.5551,-0.5551,-0.5551,-0.5552,0,0,0,0,0,0,0,-0.5682,-0.5681,-0.5676,-0.5654,-0.5649,-0.5632,-0.5628,-0.5643,-0.5603,-0.5604,-0.5598,-0.5595,-0.5571,-0.557,-0.5569,-0.5594,-0.5551,-0.5551,-0.5552,-0.5552,-0.5657,-0.5659,0,0,0,0,0,0,-0.5689,-0.5683,-0.5677,-0.5674,-0.5659,-0.5634,-0.5629,-0.5631,-0.5602,-0.5595,-0.5597,-0.5592,-0.5569,-0.5568,-0.5568,-0.5623,-0.5551,-0.5552,-0.5553,-0.5654,-0.5657,-0.5659,0,0,0,0,0,0,-0.5689,-0.5689,-0.5678,-0.5677,-0.5674,-0.5636,-0.5639,-0.5631,-0.563,-0.5597,-0.559,-0.5603,-0.5568,-0.5566,-0.559,-0.5621,-0.5553,-0.5553,-0.5652,-0.5655,-0.5658,-0.5734,0,0,0,0,0,0,-0.569,-0.569,-0.5707,-0.5678,-0.5675,-0.57,-0.5641,-0.5632,-0.5631,-0.5624,-0.5601,-0.5595,-0.5566,-0.5589,-0.559,-0.5621,-0.5554,-0.5649,-0.5653,-0.5657,-0.5728,-0.5739,-0.5749,0,0,0,0,0,-0.569,-0.5731,-0.5709,-0.5708,-0.5696,-0.5702,-0.57,-0.5664,-0.5634,-0.5652,-0.563,-0.5596,-0.5617,-0.5592,-0.5593,-0.5624,-0.5647,-0.5652,-0.5657,-0.5724,-0.5737,-0.5748,0,0,0,0,0,0,-0.5768,-0.5727,-0.5701,-0.5734,-0.5722,-0.569,-0.5711,-0.568,-0.5678,-0.5671,-0.5628,-0.5624,-0.5653,-0.564,-0.5613,-0.5669,-0.5626,-0.5632,-0.5676,-0.5689,-0.5699,-0.5702,-0.5555,0,0,0,0,0,-0.5788,-0.5795,-0.576,-0.5792,-0.5787,-0.575,-0.5752,-0.5725,-0.5711,-0.5706,-0.5686,-0.5676,-0.5679,-0.5683,-0.5685,-0.5725,-0.572,-0.5747,-0.5757,-0.5766,-0.5772,-0.5792,-0.5804,-0.5676,-0.5676,-0.5676,0,0,-0.5831,-0.581,-0.5817,-0.5807,-0.5794,-0.5803,-0.5747,-0.5759,-0.5766,-0.5709,-0.5729,-0.5714,-0.5699,-0.5731,-0.5744,-0.5721,-0.5805,-0.5772,-0.5779,-0.5781,-0.5798,-0.581,-0.5821,-0.568,-0.5679,-0.5679,0,0,-0.5915,-0.5899,-0.5924,-0.5911,-0.5892,-0.5867,-0.5873,-0.5845,-0.5833,-0.5852,-0.5808,-0.5816,-0.5824,-0.5815,-0.5811,-0.5889,-0.5857,-0.5891,-0.5945,-0.5964,-0.5975,-0.5983,-0.6011,-0.6022,-0.5896,-0.5896,-0.5897,0,-0.5972,-0.5983,-0.5941,-0.5955,-0.5952,-0.5898,-0.5923,-0.5913,-0.5897,-0.5896,-0.5871,-0.5878,-0.5864,-0.5893,-0.5912,-0.591,-0.5916,-0.5894,-0.5976,-0.5984,-0.5992,-0.6018,-0.6029,-0.5901,-0.59,-0.59,-0.5899,0,-0.6053,-0.6061,-0.6084,-0.6067,-0.6065,-0.6085,-0.6047,-0.6051,-0.6024,-0.6002,-0.6022,-0.6003,-0.5999,-0.6004,-0.5978,-0.6029,-0.6015,-0.5984,-0.594,-0.6009,-0.6033,-0.6043,-0.5907,-0.5905,-0.5904,-0.5903,0,0,-0.6187,-0.6144,-0.6153,-0.6144,-0.6118,-0.6124,-0.6141,-0.6136,-0.614,-0.613,-0.6144,-0.6151,-0.612,-0.6116,-0.6089,-0.6106,-0.6169,-0.6072,-0.6071,-0.6091,-0.6223,-0.6248,-0.626,-0.6147,-0.6148,-0.615,-0.6225,0,-0.6265,-0.6291,-0.6253,-0.6288,-0.6295,-0.6242,-0.6257,-0.6243,-0.6222,-0.6226,-0.6203,-0.6209,-0.6169,-0.6166,-0.618,-0.6158,-0.6195,-0.6152,-0.616,-0.6161,-0.6167,-0.6273,-0.6299,-0.6371,-0.6234,-0.6235,-0.6236,0,-0.636,-0.6352,-0.6388,-0.6358,-0.6359,-0.6373,-0.6365,-0.6368,-0.6351,-0.6335,-0.6329,-0.6295,-0.6311,-0.6267,-0.6288,-0.6259,-0.626,-0.625,-0.6251,-0.6252,-0.6204,-0.6277,-0.6393,-0.6404,-0.6251,-0.625,-0.6249,0,-0.6455,-0.6453,-0.6473,-0.6467,-0.6433,-0.6444,-0.643,-0.6411,-0.6409,-0.6402,-0.6401,-0.6396,-0.6394,-0.6392,-0.6358,-0.6329,-0.6383,-0.6336,-0.6371,-0.6372,-0.6386,-0.6386,-0.6505,-0.6385,-0.6385,-0.6385,-0.6385,0,-0.6547,-0.6571,-0.6515,-0.6528,-0.6553,-0.6508,-0.6535,-0.6516,-0.6498,-0.6507,-0.6462,-0.6471,-0.6425,-0.643,-0.6403,-0.6425,-0.6424,-0.6412,-0.6405,-0.6417,-0.6418,-0.6418,-0.6412,-0.6388,-0.6387,-0.6386,-0.6386,0,-0.6658,-0.6621,-0.664,-0.6605,-0.6596,-0.6616,-0.6587,-0.6597,-0.6572,-0.6584,-0.6584,-0.6546,-0.6549,-0.6514,-0.6511,-0.6493,-0.6527,-0.6511,-0.6533,-0.6528,-0.6565,-0.6562,-0.6688,-0.6703,-0.6573,-0.6575,-0.6576,0,-0.6719,-0.6736,-0.6702,-0.6703,-0.6691,-0.6695,-0.6693,-0.6649,-0.6649,-0.6629,-0.6643,-0.6641,-0.6638,-0.6645,-0.6618,-0.6615,-0.6599,-0.6643,-0.6599,-0.661,-0.6601,-0.66,-0.6602,-0.6654,-0.6655,-0.6657,-0.6658,0,-0.6833,-0.6813,-0.6811,-0.6802,-0.68,-0.6792,-0.6781,-0.6785,-0.6737,-0.674,-0.6741,-0.6738,-0.6733,-0.6733,-0.6724,-0.6711,-0.6677,-0.6671,-0.6679,-0.6692,-0.6704,-0.6699,-0.6559,-0.6669,-0.6668,-0.6667,-0.6667,-0.6666,-0.6921,-0.6933,-0.691,-0.6909,-0.6895,-0.6885,-0.6893,-0.6868,-0.6868,-0.686,-0.6834,-0.684,-0.6821,-0.6805,-0.6795,-0.68,-0.6778,-0.679,-0.6793,-0.6797,-0.6803,-0.6702,-0.6798,-0.6798,-0.6797,-0.6797,-0.6797,0,-0.7033,-0.7015,-0.7014,-0.6998,-0.6997,-0.6962,-0.6947,-0.6949,-0.6954,-0.6939,-0.6935,-0.6937,-0.6935,-0.6907,-0.6903,-0.6912,-0.6896,-0.6912,-0.6912,-0.6909,-0.6823,-0.6816,-0.6925,-0.6925,-0.6925,-0.6925,-0.6925,-0.6925,-0.7091,-0.7109,-0.7086,-0.7097,-0.7079,-0.7083,-0.7077,-0.7068,-0.7055,-0.7058,-0.7056,-0.7036,-0.7016,-0.7009,-0.7006,-0.6998,-0.6999,-0.7021,-0.7007,-0.6928,-0.6915,-0.6904,-0.6897,-0.7021,-0.7021,-0.7093,-0.7094,-0.7094]}]]